Regional Weather Roundup
Issued by NWS

Home | Current Version | Previous Version | Text Only | Print | Product List | Glossary On
Versions: 1 2 3 4 5 6 7 8 9 10 11 12 13 14 15 16 17 18 19 20 21 22 23 24 25 26 27 28 29 30 31 32 33 34 35 36 37 38 39 40 41 42 43 44 45 46 47 48 49 50
000
ASUS44 KFWD 250715
RWRTX
NORTH TEXAS HOURLY WEATHER ROUNDUP
NATIONAL WEATHER SERVICE FORT WORTH TX
200 AM CDT TUE APR 25 2017

NOTE: "FAIR" INDICATES FEW OR NO CLOUDS BELOW 12,000 FEET WITH NO
SIGNIFICANT WEATHER AND/OR OBSTRUCTIONS TO VISIBILITY.

TXZ118-119-250800-
DALLAS/FORT WORTH METROPLEX

CITY           SKY/WX    TMP DP  RH WIND       PRES   REMARKS
DFW AIRPORT    CLOUDY    68  52  56 S18G26    29.57F
DALLAS LOVE    CLOUDY    66  51  58 S20       29.60F
FTW MEACHAM    CLEAR     68  53  58 S18G25    29.57F
DAL-EXECUTIVE  PTCLDY    65  52  62 S10G22    29.60F
FTW-ALLIANCE   PTCLDY    65  52  62 S10G21    29.57F
FTW-NAS-JRB    CLEAR     68  52  56 S16       29.58F
FTW-SPINKS     CLEAR     66  52  61 S14       29.61F
ARLINGTON      CLOUDY    64  52  64 S13       29.60F
GRAND PRAIRIE  CLOUDY    66  51  58 S16G23    29.61F
ADDISON        CLOUDY    66  51  58 S13G20    29.62F
MESQUITE       CLEAR     63  50  63 S14G21    29.63F
LANCASTER      CLEAR     62  51  68 S8        29.64F
$$

TXZ091>094-102>105-117-120-121-131>134-250800-
NORTH CENTRAL TEXAS

CITY           SKY/WX    TMP DP  RH WIND       PRES   REMARKS
SHRMAN/DENISON CLEAR     63  51  63 S13       29.59F
GAINESVILLE    PTCLDY    62  51  66 S13       29.58F
BOWIE          CLEAR     64  53  67 S14G20    29.54F
BRIDGEPORT     CLEAR     66  51  57 S9        29.58S
DECATUR        CLEAR     66  51  57 S13G18    29.57F
DENTON         CLEAR     65  52  62 S13       29.57F
MCKINNEY       CLOUDY    64  52  64 S18       29.60F
BONHAM         CLEAR     64  50  59 S16       29.61F
GREENVILLE     PTCLDY    64  52  63 S12       29.64F
ROCKWALL       PTCLDY    64  51  61 S14G22    29.63F
TERRELL        CLEAR     64  50  60 S14       29.65F
WAXAHACHIE     CLEAR     62  53  73 S9        29.64F
CLEBURNE       CLOUDY    63  55  77 S15G21    29.62F
GRANBURY       CLEAR     64  53  68 E7        29.60F
$$

TXZ083>090-098>101-113>116-127>130-139>142-154-155-250800-
WESTERN NORTH TEXAS

CITY           SKY/WX    TMP DP  RH WIND       PRES   REMARKS
WICHITA FALLS  CLOUDY    67  51  56 S15       29.49F
WF-KICKAPOO    PTCLDY    68  52  56 S9        29.52S
VERNON         PTCLDY    70  48  46 S15       29.47F
ABILENE        CLOUDY    67  52  58 S17G26    29.57S
ABILENE-DYESS  CLEAR     69  53  56 SW21G28   29.54F
GRAHAM         PTCLDY    68  53  59 SE6       29.54S
BRECKENRIDGE   CLOUDY    70  52  52 S14G22    29.54F
CISCO          CLOUDY    66  52  59 S15G25    29.57F
RANGER         PTCLDY    66  53  63 S14       29.58S
MINERAL WELLS  CLOUDY    63  51  65 SE10      29.56F
STEPHENVILLE   CLEAR     63  51  64 S9        29.62F
COMANCHE       CLEAR     66  53  61 S10G16    29.60F
BROWNWOOD      PTCLDY    63  52  67 S5        29.61F
COLEMAN        CLOUDY    64  51  62 SW7       29.62S
$$

TXZ143>147-156>162-174-175-250800-
CENTRAL TEXAS

CITY           SKY/WX    TMP DP  RH WIND       PRES   REMARKS
WACO           CLEAR     64  56  75 S17G25    29.64F
WACO-MCGREGOR  CLEAR     64  54  69 S15G21    29.64F
HILLSBORO      CLEAR     64  55  71 S13       29.64F
CORSICANA      CLEAR     65  54  67 S12       29.68S
MEXIA          CLEAR     63  53  70 S15G21    29.66F
HEARNE         CLEAR     62  55  79 SE10      29.71F
CAMERON        CLEAR     64  54  71 S12       29.68F
TEMPLE         CLEAR     63  55  75 S17G26    29.66F
KILLEEN        CLEAR     64  55  70 S16       29.63F
KILLEEN-SKYLRK CLEAR     64  55  72 S12       29.65F
FORT HOOD      CLEAR     63  54  73 S10       29.62F
GATESVILLE     CLEAR     64  54  68 S12       29.65F
HAMILTON       CLEAR     64  52  65 S10       29.63F
LAMPASAS       CLEAR     65  57  73 S9G16     29.63F
$$

TXZ095>097-106>112-122>126-135>138-148>153-164>167-250800-
EAST TEXAS

CITY           SKY/WX    TMP DP  RH WIND       PRES   REMARKS
PARIS          CLEAR     59  48  67 SE9       29.65F
SULPHUR SPRNGS CLEAR     62  51  66 S8        29.67F
MOUNT PLEASANT CLOUDY    56  50  80 E3        29.70S
GILMER         CLEAR     60  51  72 S6        29.70S
MINEOLA        CLEAR     63  52  67 SE6       29.67F
TYLER          CLEAR     64  55  72 S14G24    29.68F
LONGVIEW       CLEAR     61  54  77 S9        29.70S
MARSHALL       CLEAR     56  50  79 S6        29.74R
ATHENS         CLEAR     61  50  67 S8        29.68S
PALESTINE      CLEAR     63  56  77 S12G17    29.71F
JACKSONVILLE   CLEAR     60  56  85 S9        29.72F
HENDERSON      PTCLDY    60  53  78 S5        29.72S
CENTER         MOSUNNY   62  57  86 SE7       29.75R
NACOGDOCHES    CLEAR     61  54  77 S8        29.72S
LUFKIN         CLEAR     59  54  83 S6        29.73F
$$

SUPPLEMENTAL OBSERVATIONS (CENTRAL)

CITY           SKY/WX    TMP DP  RH WIND       PRES   REMARKS
DENISON DAM      N/A     64  50  59 SE7         N/A
CADDO GRASSLND   N/A     63  50  63 S8          N/A
ATHENS           N/A     64  52  63 S10         N/A
LAKE LIMESTONE   N/A     63  54  72 S9          N/A
MCGREGOR         N/A     64  54  68 S18G26      N/A
TEMPLE           N/A     63  54  72 S14G23      N/A
$$

SUPPLEMENTAL OBSERVATIONS (WEST)

CITY           SKY/WX    TMP DP  RH WIND       PRES   REMARKS
MILLERS CREEK    N/A     72  52  49 S17G25      N/A
POSSUM KINGDOM   N/A     68  52  56 S6          N/A
LBJ GRASSLAND    N/A     64  50  59 S10G20      N/A
GRANBURY         N/A     64  52  63 SE8         N/A
COMANCHE         N/A     66  52  59 S9G17       N/A
HAMBY            N/A     68  50  52 S15G24      N/A
IVIE RESERVOIR   N/A     68  50  52 S6          N/A
COLORADO BEND    N/A     64  52  63 SW14G23     N/A
$$

SUPPLEMENTAL OBSERVATIONS (EAST)

CITY           SKY/WX    TMP DP  RH WIND       PRES   REMARKS
TEXARKANA        N/A     52  50  93 CALM        N/A
LINDEN           N/A     57  46  67 S1          N/A
LUFKIN           N/A     59  54  82 MISG        N/A
N SABINE NF      N/A     57  52  82 MISG        N/A
$$

SUPPLEMENTAL OBSERVATIONS ARE A COLLECTION OF AUTOMATED INSTRUMENTS
THAT ARE MAINTAINED BY A VARIETY OF FEDERAL AND STATE AGENCIES.
CERTAIN ELEMENTS...SUCH AS HUMIDITY VALUES AND SUSTAINED WIND
SPEEDS...MAY BE APPROXIMATED.




USA.gov is the U.S. government's official web portal to all federal, state and local government web resources and services.